Weather History for White Plains, NY

Change the Weather History Date:

Tuesday, May 7, 2013

  Actual Average Record
Temperature  
Mean Temperature 58 °F -  
Max Temperature 71 °F 65 °F 89 °F (2000)
Min Temperature 46 °F 46 °F 36 °F (1992)
Degree Days  
Heating Degree Days 7    
Growing Degree Days 8 (Base 50)    
Moisture  
Dew Point 51 °F    
Average Humidity 74    
Maximum Humidity 93    
Minimum Humidity 56    
Precipitation  
Precipitation 0.00 in - - ()
Sea Level Pressure  
Sea Level Pressure 30.13 in    
Wind  
Wind Speed 4 mph (ESE)    
Max Wind Speed 12 mph    
Max Gust Speed -    
Visibility 10 miles    
Events      
Averages and records for this station are not official NWS values.
T = Trace of Precipitation, MM = Missing Value Source: NWS Daily Summary

Daily Weather History Graph

Daily Weather History Graph

Search for Another Location

Airport:

Trip Planner

Search our weather history database for the weather conditions in past years. The results will help you decide how hot, cold, wet, or windy it might be!

Date:

Astronomy

May. 07, 2013 Rise Set
Actual Time 5:45 AM EDT 7:58 PM EDT
Civil Twilight 5:14 AM EDT 8:28 PM EDT
Nautical Twilight 4:37 AM EDT 9:06 PM EDT
Astronomical Twilight 3:55 AM EDT 9:47 PM EDT
Moon 4:19 AM EDT (5/7) 5:54 PM EDT (5/7)
Length of Visible Light 15h 14m
Length of Day
14h 13m
Waning Crescent, 5% of the Moon is Illuminated
May 7
Waning Crescent
May 9
New
May 18
First Quarter
May 25
Full
May 31
Last Quarter

Hourly Weather History & Observations

Time (EDT) Temp. Dew Point Humidity Pressure Visibility Wind Dir Wind Speed Gust Speed Precip Events Conditions
12:56 AM 50.0 °F 46.9 °F 89% 30.16 in 10.0 mi Calm Calm - N/A   Clear
1:56 AM 48.2 °F 46.4 °F 93% 30.14 in 10.0 mi NW 3.5 mph - N/A   Clear
2:56 AM 48.0 °F 45.0 °F 89% 30.14 in 10.0 mi NW 3.5 mph - N/A   Clear
3:56 AM 48.0 °F 45.0 °F 89% 30.14 in 10.0 mi NW 4.6 mph - N/A   Clear
4:56 AM 48.0 °F 44.1 °F 86% 30.14 in 10.0 mi Calm Calm - N/A   Clear
5:56 AM 46.0 °F 43.0 °F 89% 30.13 in 10.0 mi Calm Calm - N/A   Clear
6:56 AM 53.1 °F 44.1 °F 71% 30.14 in 10.0 mi Variable 3.5 mph - N/A   Clear
7:56 AM 54.0 °F 45.0 °F 72% 30.15 in 10.0 mi ESE 4.6 mph - N/A   Clear
8:56 AM 59.0 °F 46.0 °F 62% 30.17 in 10.0 mi SE 5.8 mph - N/A   Clear
9:56 AM 61.0 °F 48.0 °F 62% 30.17 in 10.0 mi ESE 5.8 mph - N/A   Clear
10:56 AM 64.0 °F 53.1 °F 67% 30.17 in 10.0 mi SE 11.5 mph - N/A   Scattered Clouds
11:56 AM 66.0 °F 53.1 °F 63% 30.16 in 10.0 mi ESE 9.2 mph - N/A   Partly Cloudy
12:56 PM 68.0 °F 55.0 °F 63% 30.14 in 10.0 mi SE 11.5 mph - N/A   Partly Cloudy
1:56 PM 69.1 °F 55.0 °F 61% 30.13 in 10.0 mi ESE 9.2 mph - N/A   Partly Cloudy
2:56 PM 69.8 °F 53.6 °F 56% 30.12 in 10.0 mi ESE 8.1 mph - N/A   Scattered Clouds
3:56 PM 70.0 °F 55.0 °F 59% 30.10 in 10.0 mi ESE 8.1 mph - N/A   Scattered Clouds
4:56 PM 69.1 °F 55.0 °F 61% 30.10 in 10.0 mi SE 10.4 mph - N/A   Scattered Clouds
5:56 PM 66.0 °F 55.0 °F 68% 30.10 in 10.0 mi East 6.9 mph - N/A   Clear
6:56 PM 66.0 °F 55.0 °F 68% 30.10 in 10.0 mi ESE 4.6 mph - N/A   Clear
7:56 PM 63.0 °F 55.0 °F 75% 30.11 in 10.0 mi ESE 3.5 mph - N/A   Mostly Cloudy
8:56 PM 62.1 °F 55.0 °F 78% 30.12 in 10.0 mi ESE 4.6 mph - N/A   Mostly Cloudy
9:56 PM 61.0 °F 55.0 °F 81% 30.13 in 10.0 mi East 3.5 mph - N/A   Clear
10:56 PM 60.1 °F 55.0 °F 83% 30.13 in 10.0 mi East 3.5 mph - N/A   Overcast
11:56 PM 59.0 °F 55.0 °F 87% 30.11 in 10.0 mi East 4.6 mph - 0.00 in   Mostly Cloudy